www.pogodaiklimat.ru

Погода и климат >> Архив погоды >> Казахстан >> Пресногорьковка


ПОГОДА в Пресногорьковке

  • Прогноз погоды в Пресногорьковке
  • Монитор погоды в Пресногорьковке

АРХИВ ПОГОДЫ в Пресногорьковке

Время (UTC), дата Ветер
(напр.,м/с)
 
Видим.   Явления Облачность Т
(С)
Тd
(С)
f
(%)
Тe
(С)
Тes
(С)
Комфортность P
(гПа)
Po
(гПа)
Тmin
(С)
Tmax
(С)
R
(мм)
R24
(мм)
S
(см)
18 11.09 Ю 2 н/о дымка 4/0
[Ci fib]
+7.3 +5.8 90 +5 +5 1030.6 1010.8 +19.9
21 11.09 ЮЗ 2 н/о дымка 8/4 600 м
[Sc Cs]
+8.7 +6.5 86 +7 +7 1029.8 1010.0
00 12.09 ЮЗ 2 н/о дымка 10/10 600 м
[Sc]
+10.2 +8.5 89 +9 +9 1028.9 1009.2
03 12.09 ЮЗ 3 4000 м дымка 10/0
[Ac As]
+12.0 +10.0 88 +10 +11 1027.9 1008.4
09 12.09 З 6 20 км 8/6 1000 м
[Cu med, cong Ac trans]
+20.9 +6.2 38 +22 +22 комфорт 1024.3 1005.4
12 12.09 З 5 20 км 10/0
[Ac As]
+19.5 +8.4 49 +20 +20 1022.4 1003.5
15 12.09 З 2 н/о {ливн. осадки} 6/0
[Ac trans Ci fib]
+13.7 +12.9 95 +13 +13 1022.8 1003.5 +22.0
18 12.09 З 2 н/о {ливн. осадки} 6/0
[Ac trans Ci fib]
+13.2 +12.3 94 +12 +12 1022.9 1003.6 +22.0 0.4
21 12.09 З 2 н/о 3/0
[Ci fib]
+11.7 +11.0 95 +10 +10 1022.6 1003.2
00 13.09 З 1 н/о {ливн. осадки} 6/3 600 м
[Sc Ci fib]
+10.1 +9.3 95 +10 +10 1022.9 1003.3
03 13.09 З 2 4000 м дымка 8/0
[Ac trans Cs]
+11.2 +10.4 95 +10 +11 1023.0 1003.6
06 13.09 З 2 20 км 8/0
[Cs]
+17.0 +11.9 72 +17 +23 1022.4 1003.4 +9.5 0.0
09 13.09 З 4 20 км 10/6 1000 м
[Cu med, cong Ac trans Cs]
+19.9 +12.2 61 +22 +23 комфорт 1021.1 1002.3
12 13.09 З 4 20 км 6/4 1000 м
[Cu med, cong Ci]
+21.0 +10.6 51 +23 +24 комфорт 1019.9 1001.2
15 13.09 З 3 н/о 5/0
[Ci fib]
+14.0 +10.7 80 +13 +13 1020.1 1000.9 +22.1
18 13.09 ЮЗ 3 н/о дымка 6/0
[Ci]
+11.5 +9.5 88 +10 +10 1020.1 1000.8 +22.1
21 13.09 ЮЗ 3 н/о дымка 6/0
[Ci fib]
+10.5 +9.0 90 +8 +8 1019.8 1000.3
00 14.09 ЮЗ 2 н/о дымка 8/0
[Ac trans Ci fib]
+11.7 +9.9 89 +11 +11 1019.2 999.9
03 14.09 ЮЗ 3 4000 м дымка 4/0
[Ci fib]
+12.8 +10.3 85 +11 +12 1019.3 1000.1
09 14.09 З 5 20 км 8/6 1000 м
[Cu med, cong Ci fib]
+22.7 +9.4 43 +24 +26 комфорт 1009.4 999.0
15 14.09 ЮЗ 1 н/о 8/0
[Ci fib]
+15.7 +8.6 63 +16 +16 1017.2 998.1 +24.6
18 14.09 Ю 2 н/о 3/0
[Ci fib]
+13.0 +8.6 75 +12 +12 1017.0 997.8 +24.6
21 14.09 штиль 0 н/о ясно +10.0 +6.8 80 +9 +9 1016.7 997.3
00 15.09 Ю 1 н/о 3/0
[Ac cuf]
+9.6 +6.4 80 +9 +9 1016.6 997.2
03 15.09 Ю 2 20 км 3/0
[Ac lent]
+11.2 +7.7 79 +10 +11 1016.3 997.0
06 15.09 ЮЗ 3 20 км 3/0
[Ci fib]
+23.1 +8.5 39 +24 +30 комфорт 1015.2 996.7 +7.5
09 15.09 ЮЗ 6 20 км 6/6 1000 м
[Cu med, cong]
+24.2 +4.0 27 +24 +25 комфорт 1014.3 995.8
12 15.09 ЮЗ 5 20 км 4/4 1000 м
[Cu med, cong]
+24.0 +3.6 26 +23 +24 комфорт 1013.3 994.8
15 15.09 Ю 4 н/о 3/0
[Ac trans]
+17.3 +5.6 46 +17 +17 1013.1 994.2 +26.0
18 15.09 Ю 4 н/о 3/0
[Ac trans]
+13.4 +5.3 58 +12 +12 1012.9 993.8 +26.0
21 15.09 Ю 4 н/о 6/0
[Ac trans]
+13.4 +4.8 56 +12 +12 1011.8 992.7
00 16.09 Ю 2 н/о 6/0
[Ac trans Ci fib]
+11.3 +5.1 66 +10 +10 1010.9 991.7
03 16.09 Ю 2 20 км 8/0
[Ac trans Ci fib]
+11.9 +6.7 70 +11 +12 1009.7 990.5
09 16.09 ЮЗ 7 20 км 8/4 1000 м
[Cu med, cong Ac trans]
+21.3 +3.2 30 +21 +22 комфорт 1006.3 987.8
12 16.09 Ю 4 20 км в посл. час гроза {ливн. осадки} 8/4 1000 м
[Cu med, cong Ac trans Ci fib]
+19.3 +6.8 44 +20 +20 1004.0 985.5
15 16.09 З 7 н/о 10/0
[Ac As]
+13.9 +8.8 71 +12 +12 1005.5 986.6 +24.7
18 16.09 З 4 н/о дымка 3/0
[Ci fib]
+8.8 +7.6 92 +6 +6 1007.5 988.1 +24.7 0.4
21 16.09 ЮЗ 3 н/о дымка 8/0
[Ac trans Ci fib]
+5.4 +4.7 95 +2 +2 1008.1 988.5
00 17.09 Ю 4 н/о дымка 10/0
[Ac As]
+8.7 +7.4 92 +5 +5 1007.2 987.8
03 17.09 Ю 6 20 км 8/0
[Ac trans Ci fib]
+9.9 +6.2 78 +6 +7 1007.4 988.1
06 17.09 ЮЗ 6 20 км 10/0
[Ac As]
+12.5 +5.9 64 +10 +11 1007.3 988.1 +5.2
12 17.09 ЮЗ 7 20 км {ливн. осадки} 10/0
[Ac As]
+17.4 +3.4 39 +16 +17 1005.8 987.1
15 17.09 ЮЗ 4 н/о 8/0
[Ac trans]
+14.5 +5.0 53 +13 +13 1006.2 987.3 +18.0
18 17.09 Ю 3 н/о 8/0
[Ac trans]
+11.5 +4.5 62 +10 +10 1007.3 988.1 +18.0 0.0
21 17.09 ЮЗ 4 н/о 10/0
[Ac As]
+13.8 +4.5 53 +13 +13 1007.2 988.2
00 18.09 Ю 4 н/о 10/0
[Ac As]
+13.7 +3.6 50 +12 +12 1006.2 987.3
03 18.09 Ю 4 20 км 8/0
[Ac trans]
+14.0 +4.0 51 +13 +13 1005.6 986.7
15 18.09 ЮЗ 7 н/о слаб. ливневой дождь 10/8 300 м
[Cb cap Ac As]
+13.8 +12.9 94 +11 +11 1004.4 985.5 +22.0

 

Местоположение метеостанции Пресногорьковка (Костанайская область, Казахстан): широта 54.48 долгота 65.78 высота над уровнем моря 161 м.

В архиве по умолчанию представлена погода в Пресногорьковке за последнюю неделю. Архивные данные за месяц целиком и за предыдущие месяцы, начиная с января 2011 года, Вы можете получить, выбрав интересующий диапазон дат из раскрывающегося списка и нажав кнопку "Ввод!".


*Определитесь, кто Вы:
робот инопланетянин человек

Внимание! Время в таблицах - всемирное. Для получения местного времени необходимо прибавить поправку, которая равна 5 ч.

Смотрите также архив погоды в соседних городах и на ближайших метеорологических станциях:

Погода в Половинном (Курганская область, Россия) (35 км)
Погода в Звериноголовском (Курганская область, Россия) (59 км)
Погода в Благовещенке (Северо-Казахстанская область, Казахстан) (78 км)
Погода в Тимирязево (Северо-Казахстанская область, Казахстан) (93 км)
Погода в Куртамыше (Курганская область, Россия) (100 км)
Погода в Кургане (Курганская область, Россия) (111 км)
Погода в Сергеевке (Северо-Казахстанская область, Казахстан) (126 км)
Погода в Макушино (Курганская область, Россия) (130 км)
Погода в Сарыколе (Костанайская область, Казахстан) (130 км)
Погода в Целинном (Курганская область, Россия) (136 км)

Пояснения к столбцам:

Ветер - указаны скорость ветра в м/с - средняя за 10 мин, порывы в срок и между сроками (в фигурных скобках) и направление, откуда дует ветер: С - северный, СВ - северо-восточный, В - восточный, ЮВ - юго-восточный, Ю - южный, ЮЗ - юго-западный, З - западный, СЗ - северо-западный.
Видимость - горизонтальная дальность видимости в метрах или километрах. При видимости от 1 до 10 км при отсутствии осадков обычно наблюдается дымка, при ухудшении видимости до 1 км и менее - туман. В сухую погоду видимость может ухудшаться дымом, пылью или мглою.
Явления - указаны атмосферные явления, наблюдавшиеся в срок или в последний час перед сроком; фигурными скобками обозначены явления, наблюдавшиеся между сроками (за 1-3 часа до срока); квадратными скобками обозначены град или гололедные отложения с указанием их диаметра в мм.
Облачность - указаны через наклонную черту общая и нижняя облачность в баллах и высота нижней границы облаков в метрах; квадратными скобками обозначены формы облаков: Ci - перистые, Cs - перисто-слоистые, Cc - перисто-кучевые, Ac - высококучевые, As - высокослоистые, Sc - слоисто-кучевые, Ns - слоисто-дождевые, Cu - кучевые, Cb - кучево-дождевые. Подробнее классификацию облаков см. в Атласе облаков (PDF).
T - Температура воздуха - температура, измеренная на высоте 2 м над землей.
Td - Температура точки росы - температура, при понижении до которой содержащийся в воздухе водяной пар достигнет насыщения.
f - Относительная влажность воздуха - влажноcть воздуха, измеренная на высоте 2 м над землей.
Te - Эффективная температура - температура, которую ощущает одетый по сезону человек в тени. Характеристика душности погоды. При расчете учитывается влияние влажности воздуха и скорости ветра на теплоощущения человека.
Tes - Эффективная температура на солнце - температура, которую ощущает человек, с поправкой на солнечный нагрев. Характеристика знойности погоды. Зависит от высоты солнца над горизонтом, облачности и скорости ветра. Ночью, в пасмурную погоду, а также при ветре 12 м/с и более поправка равна нулю.
P - Атмосферное давление - приведенное к уровню моря атмосферное давление.
Po - Атмосферное давление - измеренное на уровне метеостанции атмосферное давление.
Tmin - Минимальная температура - минимум температуры воздуха на высоте 2 м над землей.
Tmax - Максимальная температура - максимум температуры воздуха на высоте 2 м над землей.
R - Количество осадков - Количество выпавших осадков за период времени, мм. При наведении курсора мыши на число - период времени, за который выпало указанное количество осадков.
R24 - Количество осадков - Количество выпавших осадков за 24 часа, мм.
S - Снежный покров - Высота снежного покрова, см. При наведении курсора мыши на число - состояние снежного покрова и степень покрытия местности в баллах.